RH
12 12 14 15 16 15 14 14 13 14 13 13 15 15 15 16 17 16 15 14 14 14 14 15 15 15 14 13 12 11 11 9 8 8 11 14 15 12 10 10 8 8 9 9 10 12 13 13 12 11 12 12 12 12 13 17 14 19 41 45 34 34 28 19 19 17 17 17 16 20 22 25 33 32 30 31 32 29 27 25 25 25 24 24 24 23 23 23
12 12 14 15 16 15 14 13 13 14 12 12 14 15 15 15 15 14 14 14 13 12 12 13 13 15 16 16 16 14 13 10 8 10 13 15 12 10 9 9 9 9 9 9 9 10 12 12 12 12 12 12 13 15 14 17 15 22 41 41 30 30 22 14 16 14 15 16 15 23 25 26 32 30 27 30 33 31 29 25 23 24 24 24 24 24 24 24
13 12 15 16 17 16 15 12 11 12 11 10 12 14 13 13 13 13 13 12 13 12 11 11 13 16 17 18 18 17 19 13 8 11 13 12 10 9 9 8 9 9 9 10 10 11 12 12 13 13 13 13 15 17 18 18 16 18 30 34 26 21 17 13 14 13 16 14 12 22 26 26 28 26 27 30 30 30 31 28 23 25 26 25 26 25 26 26
14 14 17 17 18 17 15 11 9 12 12 10 10 12 12 12 13 11 10 11 14 15 11 10 11 14 14 15 15 15 21 16 10 14 12 10 10 9 8 8 8 9 9 10 10 11 13 13 13 12 13 16 15 16 18 18 16 16 23 29 21 16 17 14 12 13 14 14 13 19 27 31 28 25 26 28 33 32 27 25 24 26 26 26 27 26 27 27
14 16 18 18 19 17 15 12 10 11 14 14 13 13 12 11 10 8 9 11 15 16 12 10 9 11 11 12 13 14 22 21 13 12 11 9 11 9 8 7 7 9 9 10 11 10 12 13 12 12 14 17 17 18 18 14 14 16 17 17 14 14 16 14 12 14 14 14 16 21 29 34 31 27 26 26 36 34 24 23 24 25 26 25 26 26 27 27
15 16 18 19 19 17 14 14 12 11 16 18 14 11 10 10 8 6 8 11 14 15 13 10 8 10 9 10 13 14 19 20 13 11 10 10 10 9 8 7 7 8 8 10 12 11 12 12 14 14 16 21 22 20 18 13 13 18 16 11 12 13 14 14 13 14 14 14 20 26 29 31 32 32 29 25 30 29 22 24 25 24 25 25 26 27 28 28
16 17 18 18 19 17 13 14 14 12 14 14 10 9 9 10 9 6 7 9 12 14 14 13 13 13 11 10 10 10 13 15 13 11 10 10 10 10 9 7 7 7 7 8 10 13 13 12 15 15 21 28 23 19 18 13 13 21 19 11 11 13 13 14 13 14 14 16 22 25 26 28 32 34 32 28 27 27 26 27 26 26 26 26 28 28 28 29
17 17 18 18 19 17 12 11 12 11 11 9 8 9 9 10 10 7 6 7 9 12 13 13 15 17 17 14 9 8 12 14 12 11 10 10 10 10 9 7 8 7 7 8 9 12 13 15 16 16 25 29 20 19 19 17 20 25 20 12 11 14 14 13 13 14 14 18 21 22 27 29 29 30 30 30 29 28 28 28 27 27 27 27 27 27 28 29
17 17 17 18 18 16 12 9 8 8 8 8 9 8 8 9 10 9 7 7 7 8 9 9 11 14 17 16 9 9 14 14 11 10 10 10 10 10 8 8 8 8 8 8 9 11 13 15 16 16 22 20 16 17 16 21 25 20 17 13 11 13 13 14 14 14 15 18 21 24 30 28 25 27 28 28 27 27 26 25 26 25 26 26 26 27 28 29
16 16 16 17 17 16 12 8 8 8 8 9 9 9 9 9 10 10 9 9 8 8 8 8 10 12 12 9 8 12 15 13 11 11 11 10 10 9 9 9 8 9 9 9 11 14 14 15 16 14 15 14 16 18 17 21 21 15 16 14 11 14 14 14 15 15 15 17 21 27 30 26 26 31 29 25 23 24 24 24 24 25 25 26 26 27 28 29
16 15 15 15 15 14 12 8 7 8 8 9 8 8 9 9 10 10 10 10 9 9 9 9 9 10 8 6 10 15 13 11 11 11 11 10 9 9 9 9 10 10 9 10 13 15 15 16 18 16 15 15 15 18 19 20 20 14 16 18 13 13 14 14 15 15 15 18 22 27 30 30 30 33 29 23 23 23 24 24 24 25 25 26 27 28 29 29
17 14 13 13 13 12 10 8 7 8 8 8 8 7 8 9 10 10 10 10 10 11 11 10 9 7 6 7 12 14 12 12 11 11 12 10 9 9 9 10 11 11 11 11 12 14 15 16 17 19 21 17 17 23 19 18 20 15 20 31 26 20 18 15 14 16 16 18 22 26 35 43 39 32 26 21 23 24 23 24 24 25 25 26 27 27 28 30
14 12 12 13 12 11 9 8 7 7 7 7 7 8 8 8 9 9 10 11 11 10 11 10 9 7 6 10 14 14 13 12 11 12 12 11 10 10 10 11 14 14 14 14 13 12 11 14 16 18 21 19 20 23 17 14 16 18 26 35 37 39 32 19 14 16 16 18 21 23 40 56 44 28 25 23 22 23 23 24 24 25 25 25 27 27 28 30
11 11 12 13 11 9 8 8 7 7 8 7 7 8 9 8 9 9 10 11 11 10 11 11 10 8 7 13 15 12 13 12 10 11 13 13 11 12 12 13 16 17 17 16 16 15 12 12 12 16 19 19 18 18 22 22 19 28 40 45 47 45 36 25 16 16 18 19 20 25 42 56 45 29 24 22 22 24 24 24 24 24 25 26 26 27 28 28
11 11 12 12 10 9 8 7 9 9 9 9 9 9 9 9 9 9 10 12 11 12 11 10 11 10 10 13 13 12 12 11 10 10 13 13 11 13 14 15 17 17 18 18 17 17 15 11 9 14 17 17 19 27 37 40 39 46 50 57 59 42 36 33 19 16 20 19 20 29 45 54 45 31 23 22 23 23 24 23 24 24 24 26 26 26 27 27
11 11 12 10 10 9 8 9 10 10 10 10 9 9 9 10 10 10 11 12 13 13 11 11 11 10 14 14 12 12 11 11 12 11 12 12 11 12 14 15 17 16 17 17 17 17 16 15 15 17 17 18 28 48 60 57 66 70 51 47 51 37 38 40 26 18 18 20 22 25 39 50 45 32 23 23 23 22 23 24 24 25 25 25 25 26 26 27
11 11 11 10 10 9 9 10 9 10 10 10 10 10 10 9 10 10 11 11 12 12 11 12 11 11 14 14 12 13 13 12 12 12 13 14 14 14 16 16 16 16 15 15 16 16 14 17 21 21 23 24 32 55 69 59 62 73 59 49 47 35 35 43 38 25 20 26 27 25 34 44 44 34 24 23 23 22 23 24 24 24 25 25 25 26 27 28
11 11 11 11 11 10 11 11 10 11 10 10 10 10 10 9 11 10 10 11 11 13 14 11 13 16 14 12 14 14 13 13 11 12 13 14 16 16 17 17 17 17 16 16 14 15 17 17 22 27 32 34 35 46 53 45 43 53 55 52 52 43 37 42 40 31 28 31 31 33 40 45 42 35 27 25 23 22 23 23 24 24 25 26 25 26 27 28
11 11 11 11 11 12 13 12 12 12 11 13 13 14 13 10 10 11 12 13 13 18 19 13 15 20 15 13 15 14 13 12 12 12 11 13 16 17 17 19 20 17 19 24 19 16 19 23 31 38 40 39 38 39 37 34 39 45 47 46 46 45 41 40 36 30 30 34 36 36 38 43 44 40 33 27 23 22 24 24 24 25 25 25 26 26 27 29
11 11 11 12 13 13 13 13 13 13 13 14 14 19 21 14 14 15 12 13 15 18 18 14 14 15 14 14 14 14 14 12 12 11 11 13 13 16 18 17 20 23 29 37 30 19 22 35 42 39 39 35 31 34 32 34 40 43 45 43 43 45 42 36 33 30 29 35 44 37 37 44 44 43 37 27 25 24 24 24 24 25 25 26 26 27 29 31
12 12 12 12 12 12 12 12 12 12 12 13 14 20 24 20 18 18 15 15 16 15 14 14 14 14 15 15 13 13 13 11 12 12 13 14 14 17 18 19 27 32 35 34 29 23 24 36 40 31 30 31 30 34 36 41 46 43 40 37 41 46 40 33 34 36 30 34 46 37 37 47 43 43 38 28 28 26 23 24 24 25 26 27 28 28 31 31
12 11 12 12 13 12 11 11 11 11 11 12 14 15 17 17 17 17 16 19 18 15 15 15 14 15 15 16 14 12 12 12 12 13 14 14 16 20 21 26 33 31 31 35 39 41 36 34 33 26 28 33 37 40 38 44 51 49 44 42 45 45 44 44 41 40 33 35 46 38 34 42 40 40 37 31 30 26 24 24 24 26 26 27 29 30 31 29
11 12 12 13 13 11 11 11 10 11 10 10 11 11 13 15 15 15 15 21 24 19 17 16 15 15 15 17 17 12 12 15 16 14 15 16 17 22 25 30 39 37 33 38 41 41 37 31 25 23 27 34 40 43 42 45 49 49 43 42 45 42 45 49 41 40 37 38 46 37 35 43 40 36 35 31 29 26 25 26 27 28 28 29 31 31 31 26
12 13 13 13 12 11 11 11 10 11 10 11 11 10 13 15 18 21 20 24 28 23 21 19 17 17 16 17 18 17 15 16 20 18 16 19 20 23 25 30 48 50 38 39 41 36 33 26 22 29 34 38 46 49 46 43 44 49 43 35 38 40 42 45 44 45 42 45 46 33 36 48 42 37 37 32 29 28 27 28 29 29 29 32 32 32 29 22
12 13 14 12 12 12 12 10 10 11 10 11 11 10 12 13 16 21 25 32 33 28 27 24 19 18 18 19 19 19 19 18 21 20 19 21 22 27 29 27 43 52 46 48 49 43 36 24 21 36 43 45 52 46 39 40 43 52 50 36 34 40 43 44 48 50 49 52 46 32 42 54 46 41 40 35 35 33 30 30 29 29 29 31 33 31 26 20
13 14 13 12 12 14 17 15 10 12 15 11 10 12 12 13 14 13 27 45 43 34 29 24 21 19 17 19 20 19 23 25 22 20 20 21 21 28 33 31 35 43 47 47 44 40 36 28 31 43 45 48 56 45 36 41 43 47 45 35 38 42 44 49 48 52 57 53 40 33 43 50 45 41 39 39 40 38 35 34 30 28 29 32 33 29 21 18
14 14 12 13 12 12 16 15 8 12 16 10 10 12 10 15 14 11 28 42 36 33 31 23 20 21 20 19 20 23 26 25 22 20 20 21 22 23 32 43 41 38 40 40 42 42 38 38 44 52 51 49 49 41 37 37 36 41 37 33 43 43 41 48 47 50 54 44 39 40 36 42 47 42 40 40 41 42 39 39 35 30 31 34 33 26 19 19
14 13 13 12 11 11 11 11 9 10 11 9 11 12 12 15 11 18 34 29 22 28 27 23 20 20 25 21 17 22 24 24 24 22 20 21 22 20 29 41 41 40 38 37 43 41 38 43 43 47 50 44 35 31 36 36 34 42 41 39 47 44 45 51 48 51 48 40 49 47 32 44 53 40 41 43 39 42 41 41 42 33 33 36 31 25 19 18
12 12 13 11 11 12 9 9 9 8 9 9 10 12 15 14 13 28 36 22 25 34 26 25 23 20 28 28 22 23 23 24 26 25 21 20 21 23 29 31 33 41 40 43 57 50 38 39 39 41 41 35 30 31 37 38 36 40 43 45 44 43 48 50 48 46 42 47 60 46 28 46 56 40 40 46 43 45 44 47 48 35 33 37 29 22 18 16
11 12 12 11 12 11 10 11 9 9 10 8 11 15 14 19 30 36 27 18 31 37 29 28 23 22 34 36 30 27 28 29 27 27 23 19 18 22 28 27 30 42 45 54 66 54 39 36 36 38 34 28 30 32 34 36 35 36 41 43 41 44 45 42 50 49 43 62 69 43 28 43 57 48 39 44 52 55 51 51 50 38 34 35 24 18 17 15
10 10 11 12 11 10 10 10 10 11 8 8 14 14 14 31 46 36 19 22 33 32 35 39 34 35 42 40 32 32 38 32 25 32 34 29 27 27 31 33 39 53 61 66 65 53 49 50 46 38 29 27 34 37 38 37 34 35 41 43 42 50 46 40 59 61 52 69 66 38 30 42 57 54 40 42 54 58 55 49 47 42 36 30 20 16 16 14
9 8 10 10 9 10 9 9 11 9 7 11 14 17 31 45 43 31 23 27 32 31 38 45 42 42 46 44 39 42 42 29 25 39 46 47 49 44 42 45 51 57 59 62 59 54 59 59 49 40 30 28 35 41 43 44 44 41 41 46 51 58 58 55 66 66 59 65 55 34 36 47 51 44 38 46 51 50 47 40 37 39 34 25 18 16 15 13
8 8 9 8 9 9 6 8 8 6 10 12 13 25 44 44 34 34 33 30 32 34 38 44 44 45 46 39 37 45 41 27 32 39 39 52 61 53 49 51 52 50 48 51 48 49 62 59 45 41 37 29 28 35 37 39 46 43 37 49 61 59 61 66 67 66 65 59 43 32 40 54 51 40 40 45 42 37 33 29 30 33 30 22 16 16 14 12
7 9 7 7 8 6 7 9 7 10 12 11 23 37 34 28 29 34 36 37 41 45 50 50 45 44 43 33 32 44 41 32 42 45 41 53 56 48 50 53 51 49 53 53 44 41 52 53 47 44 38 31 31 32 33 36 44 45 37 47 61 57 59 68 63 63 67 57 44 37 45 59 53 46 45 35 29 29 26 27 31 30 26 19 16 16 14 12
8 8 6 7 8 6 10 10 9 14 9 14 41 50 33 28 32 32 37 45 46 52 60 54 46 45 42 40 41 43 40 36 42 49 50 51 45 38 43 47 47 55 61 54 43 43 47 48 46 40 30 30 34 32 33 39 43 43 42 48 57 55 57 68 64 57 57 62 64 57 53 52 39 39 42 31 29 31 27 30 31 26 21 16 17 16 13 13
8 8 7 9 9 10 12 11 14 15 12 30 53 54 48 41 36 40 47 47 45 54 57 46 45 46 39 42 47 42 40 39 38 43 45 45 43 39 44 49 44 50 60 54 46 44 45 48 46 36 29 31 32 29 31 35 35 40 46 47 47 42 44 60 68 63 62 73 73 57 50 48 39 42 42 34 38 38 35 34 25 20 19 17 18 16 13 13
10 9 9 9 9 12 12 12 17 12 13 41 53 49 53 43 36 55 60 45 44 53 49 36 36 39 34 36 41 38 39 38 35 35 35 40 44 40 48 54 44 41 51 55 55 46 41 50 50 41 39 35 29 27 29 29 31 41 46 40 42 48 51 57 64 72 81 85 71 54 55 56 54 56 43 34 43 43 41 37 21 17 20 18 19 16 13 13
11 12 10 10 12 13 12 12 16 13 20 48 53 40 44 42 39 57 60 47 45 47 43 38 36 35 32 32 33 34 35 34 32 33 33 38 40 40 49 51 44 43 40 46 57 51 47 53 50 46 47 38 32 36 39 35 30 35 39 37 47 61 64 61 63 73 82 84 75 65 65 61 64 72 55 40 45 41 37 34 22 20 20 18 19 15 13 13
11 16 15 12 12 14 14 13 13 15 24 46 52 40 43 55 52 50 53 54 52 44 39 38 36 34 34 35 36 37 37 33 31 31 33 35 34 38 45 44 46 48 38 41 53 52 54 56 48 49 47 38 39 45 50 47 36 35 37 38 48 59 62 62 65 70 73 80 85 78 68 60 62 70 56 41 42 38 32 30 24 22 20 19 19 14 13 13
10 20 20 12 14 16 15 14 16 33 46 47 50 50 52 63 61 49 46 50 48 41 38 39 35 32 38 41 39 42 42 37 33 33 34 37 37 40 44 43 47 52 42 39 45 48 52 53 52 55 47 41 47 46 45 47 45 49 50 48 50 55 59 62 62 65 69 79 89 86 75 59 45 46 43 38 40 36 30 27 23 22 22 20 18 15 14 13
10 22 21 11 14 15 14 20 25 47 65 51 47 58 58 61 65 53 41 43 44 39 40 45 39 36 41 40 36 40 40 33 34 37 35 34 34 38 46 46 44 49 47 43 46 49 48 49 55 60 50 45 48 40 36 43 46 51 58 60 63 67 68 65 65 71 74 78 82 81 76 59 38 36 38 37 36 31 26 24 23 24 23 21 20 17 15 12
15 28 24 11 13 14 20 36 40 51 65 53 47 58 59 57 59 51 40 40 45 42 39 46 49 45 46 44 42 45 41 33 33 35 34 40 45 48 57 54 43 45 50 51 51 45 44 52 58 58 50 43 40 34 35 43 42 41 43 45 59 72 67 61 72 80 77 76 75 76 78 61 41 39 38 33 31 27 24 25 24 25 24 23 22 18 15 13
18 25 19 9 13 15 23 42 51 60 68 60 52 54 56 54 51 49 50 46 46 45 43 50 51 40 39 45 44 43 40 35 35 36 37 49 60 64 64 53 40 44 50 54 52 41 44 57 59 61 57 44 38 36 35 37 35 35 40 38 48 67 66 65 79 81 77 76 70 76 85 64 41 40 34 26 27 27 28 28 26 26 25 24 24 20 16 14
15 16 14 11 13 15 24 47 63 69 66 57 52 49 48 48 46 51 59 54 47 45 48 54 47 34 41 49 45 44 40 31 34 38 37 46 59 63 60 50 43 48 52 56 53 41 46 55 54 62 64 49 45 43 41 46 39 34 45 44 45 65 71 67 70 70 73 76 69 80 88 58 39 43 35 29 33 33 32 31 27 27 26 26 25 21 17 14
14 17 15 12 12 12 23 47 63 71 71 60 53 51 48 44 42 49 56 51 44 42 45 49 43 41 52 50 41 45 41 30 34 36 34 48 67 67 57 49 50 51 48 47 42 38 54 61 52 59 64 57 58 55 52 59 53 41 44 42 44 61 63 59 69 75 78 76 71 81 78 48 34 40 36 35 39 37 34 33 30 28 27 27 26 22 18 14
18 28 29 22 15 12 22 33 37 52 71 63 49 50 54 50 45 46 49 44 38 38 41 43 41 42 50 50 45 46 44 39 38 35 34 48 68 74 61 50 52 53 48 41 32 39 63 67 53 56 61 56 56 51 44 49 48 44 45 44 50 60 56 58 74 78 77 78 74 68 61 49 41 38 36 37 37 38 38 35 32 30 28 28 27 22 18 15
16 30 37 31 22 20 28 31 27 39 56 52 40 43 53 55 49 45 44 42 41 40 37 39 41 39 44 52 50 48 50 48 40 35 37 45 62 75 67 58 60 61 53 40 33 44 62 63 56 57 55 49 48 44 42 46 45 43 47 51 57 64 62 61 64 63 64 73 67 50 50 56 49 37 37 38 36 37 38 35 34 31 29 29 26 22 20 16
18 26 28 26 29 34 35 33 32 37 42 42 42 47 53 54 51 47 43 42 46 44 36 39 45 48 55 56 48 47 51 47 41 41 38 41 56 68 67 67 70 67 57 44 38 47 59 65 66 63 56 52 51 47 44 45 44 44 49 52 56 66 70 62 56 54 55 60 56 44 46 53 45 36 37 36 35 37 36 35 35 31 28 28 26 24 22 19
20 22 20 20 31 41 41 37 35 36 39 42 46 51 53 51 51 52 45 41 47 46 39 41 47 57 67 58 44 48 49 36 35 44 43 42 49 58 65 71 72 70 63 51 43 42 52 69 73 66 63 57 48 47 48 49 52 53 53 51 51 60 68 63 55 52 52 56 52 45 48 50 42 38 38 35 35 36 36 35 32 29 30 30 28 27 25 22
18 18 16 19 27 33 39 41 37 37 38 36 39 46 51 53 55 52 43 39 45 45 42 48 57 64 65 54 44 49 50 39 34 40 47 45 44 51 61 66 74 77 64 50 49 42 45 68 74 63 62 55 44 51 56 55 58 56 49 47 48 53 62 64 62 58 59 62 56 52 62 61 45 39 38 37 36 36 36 34 30 29 31 31 30 29 27 24
19 18 14 19 28 31 36 38 38 44 42 36 38 43 46 54 57 50 44 42 45 47 46 50 59 65 58 50 51 52 49 44 37 34 37 36 36 42 45 45 61 76 64 50 55 51 48 68 76 65 62 54 46 51 51 48 56 58 55 53 50 52 59 61 62 63 62 62 60 62 68 60 43 38 39 37 36 36 36 33 31 31 32 32 31 30 28 25
16 16 13 21 30 32 33 32 34 41 42 41 45 44 42 47 45 36 33 39 44 47 48 47 51 59 59 54 56 54 46 41 37 34 34 33 35 38 38 37 45 60 64 58 60 61 58 66 70 63 63 62 52 49 49 50 54 55 60 62 51 48 53 51 51 54 52 51 55 59 55 43 36 36 38 37 35 36 36 33 32 33 31 31 31 30 29 26
Wind_Speed
13 14 13 14 13 13 15 15 14 12 11 12 12 13 12 11 10 9 9 9 12 14 18 20 21 21 21 22 22 22 22 22 20 24 29 25 19 16 15 14 13 12 11 12 10 8 8 7 7 5 4 7 11 10 9 14 15 8 5 5 4 3 3 2 2 2 1 2 8 15 15 11 5 10 16 18 26 27 26 28 25 22 20 17 13 9 5 3
12 13 12 13 12 12 13 14 14 13 12 11 12 12 11 10 10 11 11 10 9 10 15 17 18 19 18 17 16 18 20 21 23 29 27 18 16 15 14 12 11 12 12 13 12 11 11 11 12 8 8 12 14 13 9 12 15 9 3 5 3 3 4 5 5 4 4 3 10 16 14 13 6 4 10 11 14 19 20 19 21 20 16 12 8 6 4 4
11 11 11 12 11 11 12 13 13 12 12 12 12 12 11 11 10 10 11 10 7 7 11 15 16 15 14 12 9 10 13 20 24 26 23 18 17 16 13 11 10 11 12 13 12 12 12 12 13 12 13 16 15 15 13 9 11 9 6 5 2 6 7 8 9 7 7 7 11 13 13 17 13 8 10 13 13 13 12 12 16 18 14 10 6 4 3 4
10 9 10 11 10 10 11 12 12 12 13 14 13 12 11 9 7 8 10 9 7 5 9 13 13 11 7 3 2 2 4 15 23 22 19 18 18 16 14 12 10 10 11 11 11 10 12 12 10 13 15 13 14 16 13 8 7 6 6 5 5 9 8 8 11 9 9 13 13 11 13 15 15 14 10 13 11 8 9 13 14 16 15 11 7 3 2 4
9 8 9 10 10 10 11 12 11 12 14 14 13 12 10 8 6 8 11 11 10 11 13 12 11 8 3 4 5 3 2 5 14 18 18 19 17 16 16 15 13 10 9 9 11 11 10 9 8 13 13 9 11 11 10 12 12 6 7 11 10 12 8 8 14 11 10 15 14 11 11 9 9 16 12 12 8 4 11 15 14 14 12 9 7 4 1 2
9 8 9 9 9 9 11 13 13 14 14 13 13 12 11 10 9 9 11 16 18 20 22 18 14 10 10 8 2 4 5 4 9 16 18 17 16 16 17 18 15 10 6 8 13 13 13 13 10 11 10 9 10 7 10 13 11 6 6 11 14 14 11 10 16 14 13 18 13 10 10 11 13 13 13 16 14 13 15 13 11 11 10 8 6 4 1 1
9 9 9 9 9 9 12 13 14 15 14 13 13 13 13 12 11 10 13 16 18 20 20 19 16 14 17 20 17 18 19 12 10 15 17 16 15 15 16 18 16 11 9 11 13 13 15 17 15 15 11 7 8 7 11 16 13 8 4 9 15 17 15 14 16 12 15 19 14 10 9 10 12 10 11 17 17 15 13 10 10 10 9 7 5 3 1 1
10 10 10 10 9 10 12 13 14 16 15 13 12 12 13 13 13 11 12 14 11 11 12 12 10 8 10 11 16 25 23 15 13 15 15 16 14 12 16 18 17 14 15 15 13 12 14 15 14 14 10 5 7 6 7 11 10 6 4 8 14 15 15 14 14 11 15 17 12 11 10 9 13 14 13 15 15 14 12 10 11 10 9 7 5 4 3 3
10 10 10 10 10 10 11 13 14 15 14 14 14 14 14 14 14 14 13 13 11 7 5 6 5 6 7 3 10 19 16 13 13 13 13 15 13 12 15 18 17 17 18 17 15 14 12 13 11 10 10 7 11 9 6 7 3 2 3 7 12 13 14 14 14 12 14 15 12 12 13 16 19 15 10 13 15 14 13 12 12 11 9 7 6 5 5 4
11 11 10 10 10 9 10 12 13 13 14 16 16 15 14 14 16 17 16 14 12 8 6 6 4 6 8 7 14 13 9 12 13 12 13 14 14 15 16 18 17 17 19 22 23 20 13 11 12 14 14 10 11 9 8 7 3 2 3 6 12 13 11 12 13 11 12 13 10 11 12 16 13 4 4 13 16 14 13 13 11 10 9 8 8 6 5 6
13 12 10 9 9 8 9 11 11 11 14 14 12 12 12 14 16 17 17 18 16 14 14 15 13 11 11 17 25 14 7 13 13 12 13 14 16 16 17 17 18 18 20 24 27 25 18 11 13 11 9 9 10 8 8 6 3 4 2 5 9 8 9 10 10 8 9 8 9 15 13 11 3 1 9 17 17 14 13 13 11 10 10 9 7 5 5 8
13 12 9 8 8 7 8 10 9 10 11 9 8 8 8 10 12 13 13 14 12 12 12 11 10 7 9 22 27 14 9 13 11 12 12 16 17 16 17 17 18 21 22 25 26 23 20 11 9 7 6 7 6 4 7 6 2 4 4 4 3 5 5 5 8 8 8 6 8 14 8 2 2 2 15 20 18 15 13 14 13 11 10 8 6 5 7 9
12 10 7 7 7 7 8 8 8 8 7 5 5 6 7 6 7 8 11 13 13 14 13 12 11 4 5 18 21 13 11 11 9 9 10 15 17 15 17 16 18 21 21 24 23 20 22 15 10 14 12 7 3 4 7 10 11 5 4 4 3 7 3 2 5 6 7 6 4 6 1 4 2 8 17 20 18 16 15 14 13 11 9 7 6 6 8 9
11 8 6 7 7 8 9 8 7 6 4 3 3 5 6 7 7 8 10 11 9 7 7 10 13 12 15 16 15 14 11 8 7 9 9 12 17 18 17 16 18 20 19 19 18 18 20 19 20 20 15 9 4 5 6 9 11 4 4 4 3 4 4 8 4 4 5 2 3 5 2 5 4 10 18 20 18 17 16 15 13 11 9 8 7 7 8 11
11 8 7 8 8 9 9 8 8 8 6 5 5 7 8 8 8 9 10 9 7 6 7 9 10 15 21 15 11 14 12 8 9 12 10 8 14 15 15 16 17 18 19 15 14 16 15 20 29 23 15 13 7 2 3 4 5 4 3 2 3 2 4 10 7 6 6 2 4 8 2 4 4 12 19 20 18 17 17 15 13 10 9 8 8 8 9 13
10 8 8 9 9 9 8 9 9 9 9 8 8 8 7 6 7 10 11 10 10 10 11 11 9 11 14 10 10 13 14 12 11 12 11 9 10 10 11 12 13 17 18 13 10 12 13 20 27 24 20 16 9 3 4 4 4 3 3 2 4 3 4 7 6 6 9 3 6 6 2 3 3 14 20 20 19 18 16 14 12 10 10 9 10 9 11 14
10 9 9 9 8 7 7 8 7 5 5 6 6 5 2 3 7 9 10 11 12 10 11 12 10 12 11 7 9 13 15 14 9 9 11 11 10 9 9 7 7 10 12 12 9 7 12 16 14 13 16 13 7 4 4 4 4 4 3 1 4 4 5 5 5 7 11 7 6 5 0 3 3 14 21 20 20 18 15 14 12 11 10 10 11 10 13 15
10 9 8 9 8 9 10 11 10 9 10 10 10 8 5 4 5 4 1 5 10 8 7 7 6 8 9 6 7 10 15 14 9 8 8 9 10 9 8 7 5 2 3 10 12 9 9 10 7 4 8 7 6 7 4 2 3 4 3 3 4 4 5 6 6 5 8 8 6 5 1 3 3 11 18 20 19 17 15 14 12 11 11 11 11 11 13 15
10 11 13 13 14 14 14 15 15 16 18 16 13 13 12 12 10 6 4 6 9 7 3 8 8 6 4 6 5 7 15 15 9 5 4 5 8 7 5 7 8 3 2 5 11 13 7 4 6 3 5 6 4 6 3 5 6 7 6 3 4 5 5 6 6 5 7 8 6 5 3 5 6 8 13 18 18 15 14 13 12 12 11 11 11 12 14 17
15 17 16 15 15 13 13 13 15 16 13 8 4 5 6 9 10 12 16 18 18 13 6 8 13 12 9 9 6 5 11 15 12 7 4 2 4 7 6 5 9 8 4 2 3 10 9 6 6 3 3 6 4 2 2 5 4 5 3 1 4 6 5 6 7 8 8 6 5 5 3 6 8 7 11 17 15 14 14 13 13 13 12 11 11 13 16 17
18 16 13 12 12 11 9 10 10 8 4 2 2 3 3 5 6 10 18 21 19 16 11 9 11 12 13 13 11 6 7 12 14 12 9 5 2 5 8 6 7 7 4 3 4 7 10 8 4 4 5 6 4 3 5 6 4 1 1 3 5 5 7 9 6 7 8 4 6 4 2 5 7 6 10 15 12 12 16 15 14 13 11 11 13 15 15 15
16 13 11 10 11 11 8 7 6 4 6 8 9 10 11 12 13 14 16 15 13 14 13 12 10 10 12 13 14 10 10 13 15 16 14 11 9 6 9 9 6 4 4 4 5 5 8 5 4 7 8 5 3 5 8 7 5 2 3 3 4 3 6 9 5 6 7 3 5 5 1 5 6 5 8 14 12 11 15 15 12 11 10 12 15 14 13 16
12 10 10 9 9 11 11 10 9 8 9 10 10 11 13 14 14 14 14 12 9 8 9 12 14 12 10 9 11 13 17 15 13 17 17 13 13 11 10 9 6 4 6 6 5 4 5 1 6 9 9 5 4 6 8 7 5 3 2 2 4 4 2 4 5 7 9 4 4 6 5 4 3 3 5 11 12 9 11 12 10 10 11 14 14 11 13 19
9 9 9 8 9 10 10 10 8 6 5 5 6 8 9 9 9 9 10 8 5 4 5 8 11 13 11 8 8 12 18 17 13 17 18 12 8 7 6 5 5 5 4 7 8 6 3 4 6 8 7 5 4 4 6 6 5 4 2 0 5 6 2 5 5 7 10 6 2 3 4 3 3 5 5 6 7 7 9 10 10 11 13 14 12 11 16 19
7 8 8 8 8 9 9 8 7 5 5 4 5 6 5 4 3 4 4 5 2 1 2 3 6 9 11 9 5 6 11 14 15 16 16 14 8 4 4 4 4 3 4 6 7 5 1 4 4 5 6 6 5 3 3 3 4 5 3 3 5 7 6 7 7 7 6 5 3 3 3 5 3 7 7 4 4 6 9 11 12 12 13 13 11 13 17 17
7 8 8 8 7 6 6 6 7 5 4 4 4 4 3 2 2 2 2 4 3 3 1 2 4 6 9 11 4 4 5 7 12 15 15 15 11 5 4 4 4 3 4 4 3 2 0 3 4 3 4 6 5 2 1 3 5 5 4 5 6 6 8 8 7 5 1 4 4 4 2 4 2 5 8 5 5 6 7 10 15 16 14 11 11 14 15 17
7 7 6 6 5 5 4 5 6 4 3 4 4 3 1 1 2 1 1 4 3 1 1 2 3 4 8 12 5 5 2 2 5 14 16 13 10 8 4 3 4 2 1 3 2 1 0 5 6 4 4 5 4 3 3 2 3 4 7 7 7 7 10 9 6 3 3 4 5 3 2 4 4 4 4 6 6 7 7 8 13 17 14 10 11 13 14 20
6 5 4 3 3 4 4 5 5 4 4 4 4 2 1 1 1 1 4 2 2 1 3 1 3 6 6 10 12 9 4 1 2 9 14 11 9 8 5 2 3 1 1 4 0 3 0 2 1 1 5 3 1 3 4 2 2 7 10 9 8 7 9 8 5 5 2 2 5 4 2 3 5 3 1 4 4 7 9 8 10 14 14 11 12 13 16 21
4 3 3 2 1 3 5 5 5 5 5 4 3 2 1 0 1 2 4 1 1 2 2 1 2 4 4 6 12 12 8 6 3 5 11 11 8 6 5 3 2 1 3 4 3 3 1 2 3 3 3 1 4 6 5 5 3 8 9 10 9 6 5 5 4 3 2 2 4 5 2 2 5 3 1 2 4 7 7 6 8 13 14 12 11 13 17 18
4 3 3 3 3 5 6 7 7 6 5 4 3 1 2 3 2 4 2 2 0 1 1 2 1 4 4 3 7 9 7 6 6 5 9 11 12 9 7 3 4 3 2 5 3 2 0 1 0 2 2 3 5 8 6 8 6 7 8 8 9 6 2 0 1 2 3 2 5 5 3 3 3 5 2 3 5 6 5 4 7 13 16 12 10 14 15 15
4 4 4 5 6 7 8 9 9 8 5 4 2 1 2 3 4 4 1 2 1 1 1 2 2 3 5 3 2 6 4 4 7 6 6 8 12 12 7 2 5 4 3 5 4 3 3 2 2 1 2 3 4 6 5 2 1 7 5 4 5 5 4 3 4 4 2 4 5 4 2 3 2 6 4 5 5 6 6 5 6 12 15 11 9 13 13 14
5 5 6 7 8 9 10 10 10 8 6 3 2 2 2 3 3 1 2 1 1 1 0 1 2 2 4 3 2 4 2 3 6 5 3 3 5 7 6 1 1 4 4 4 3 5 3 2 2 1 2 3 2 3 6 5 6 6 4 4 5 4 4 4 4 2 1 5 5 1 6 2 6 7 5 6 7 8 10 10 11 13 12 7 10 12 12 16
6 6 7 8 9 11 11 11 9 6 5 4 4 2 5 4 1 3 1 1 0 1 1 1 1 2 2 3 2 3 1 1 4 3 2 3 4 2 4 3 2 2 1 2 3 5 4 3 3 2 2 2 2 2 3 3 4 5 4 4 3 2 5 5 4 3 3 5 5 5 5 1 6 6 6 8 9 13 15 14 14 13 9 7 10 12 15 19
5 5 7 8 10 10 10 8 6 4 5 6 4 4 5 2 3 1 1 3 2 1 1 1 1 3 3 2 1 1 1 1 2 3 2 3 4 2 3 6 6 3 2 1 2 1 2 4 2 1 1 1 2 3 3 2 2 4 1 4 3 2 2 2 2 2 5 7 7 6 1 3 5 4 7 9 11 14 14 13 12 11 8 8 12 15 18 20
3 4 6 8 7 7 5 3 3 5 7 7 4 5 3 4 3 2 2 3 2 0 1 1 2 3 3 2 2 1 1 1 1 4 4 3 2 1 1 4 5 3 3 2 1 1 1 4 4 2 0 1 1 2 3 2 2 3 1 4 2 1 4 2 4 5 4 6 6 3 2 4 4 4 4 6 7 10 12 13 12 10 8 10 15 16 17 18
2 4 5 5 4 3 2 1 4 6 8 5 5 3 4 4 2 3 2 1 2 3 2 2 3 2 1 2 2 2 0 1 1 2 3 2 2 1 1 1 2 3 4 3 0 1 1 4 4 1 2 1 1 0 2 2 1 1 3 1 2 3 5 2 4 4 1 3 5 3 4 5 3 4 2 1 4 7 9 11 11 8 9 11 15 16 16 17
3 3 3 2 3 2 1 2 5 8 6 4 4 3 4 1 2 3 0 0 2 3 4 2 1 2 2 2 2 3 1 1 1 2 1 0 1 1 2 1 1 1 3 3 1 1 1 4 4 3 1 2 1 3 4 4 2 2 1 2 1 2 3 3 2 4 3 2 5 3 5 7 4 4 3 2 6 8 8 8 8 8 9 11 14 15 15 16
4 3 2 2 1 3 3 3 6 8 4 4 3 2 2 1 2 2 1 0 1 2 4 2 2 2 3 2 2 3 1 0 1 1 1 0 0 2 4 1 1 2 2 2 1 1 2 2 5 1 2 1 2 3 3 4 4 4 2 2 3 2 1 1 1 2 2 4 6 4 5 6 3 4 4 4 7 8 7 5 6 9 10 11 13 13 13 16
4 3 3 3 1 4 5 5 6 5 2 3 1 2 1 2 2 2 2 1 1 2 2 3 2 1 2 3 3 2 1 2 1 1 1 1 1 2 3 2 1 2 2 2 2 1 2 1 4 3 1 1 2 2 1 3 3 4 3 1 1 2 3 1 1 2 1 3 4 5 7 5 5 5 5 7 8 7 6 5 6 10 12 11 11 12 14 18
3 2 3 3 2 4 6 7 5 3 3 2 3 3 1 1 2 2 3 2 1 2 1 3 2 2 2 2 3 2 1 2 2 2 1 1 1 1 2 2 3 3 1 2 2 1 2 2 3 5 3 1 1 1 4 4 2 1 1 1 1 0 1 1 1 2 3 1 1 4 8 8 6 4 6 9 8 5 7 6 7 11 11 10 11 13 16 19
2 1 2 2 3 5 6 6 3 4 4 2 1 1 0 2 3 2 2 2 1 1 1 2 3 3 3 2 2 2 2 2 2 1 1 1 1 0 2 4 4 4 2 2 1 0 0 2 2 4 4 3 3 4 5 5 6 5 3 4 3 2 2 1 3 2 2 3 4 1 7 12 7 3 6 7 6 6 9 10 9 9 10 11 13 15 18 20
2 0 1 0 4 6 5 4 4 4 4 2 2 2 1 2 3 2 2 1 1 1 1 1 1 2 2 2 2 2 2 2 1 1 1 2 2 2 3 5 6 5 4 2 1 1 1 2 1 4 6 5 4 3 2 2 3 4 2 3 4 4 5 3 3 3 1 2 3 3 4 10 5 4 5 7 7 9 11 11 9 10 11 13 15 17 19 20
2 1 1 2 7 7 3 2 3 4 2 2 2 2 2 2 2 2 2 1 0 1 0 1 0 1 1 2 2 2 2 1 1 1 2 2 1 3 5 6 6 5 4 2 1 1 1 2 1 4 6 3 2 2 2 3 3 1 2 3 5 3 4 5 5 3 1 3 3 3 4 9 4 5 8 10 11 10 9 8 10 12 14 15 17 18 19 20
1 1 1 3 8 7 2 1 1 1 0 0 2 2 1 1 2 2 2 2 1 0 0 0 1 0 1 1 3 2 1 1 1 1 2 2 2 4 6 6 5 4 3 2 3 3 2 1 1 3 6 5 3 4 4 3 1 3 3 3 4 5 7 4 3 4 0 6 6 4 6 10 5 5 8 8 8 9 11 11 12 14 16 17 18 19 20 20
2 1 0 2 7 7 3 3 4 4 2 2 2 1 1 1 1 2 1 2 2 1 1 1 0 1 0 2 3 2 1 1 0 0 1 1 1 4 6 6 5 4 3 4 5 4 2 2 2 2 2 4 4 5 5 3 2 3 2 4 4 6 9 5 2 3 2 5 6 5 8 13 10 4 6 7 8 9 12 13 13 15 17 18 19 20 20 20
1 0 1 1 3 5 2 2 4 5 5 4 2 2 3 1 1 2 2 1 2 2 3 2 2 2 2 2 3 1 1 1 1 1 2 2 1 2 5 6 4 4 5 5 4 3 1 1 3 5 5 5 6 8 5 3 3 6 5 5 5 6 8 6 4 3 5 3 4 9 12 16 21 16 12 12 10 9 11 13 15 17 17 18 19 19 20 21
1 1 2 0 1 2 2 2 4 4 5 7 3 2 5 2 0 2 1 1 2 3 2 1 2 2 2 3 3 1 1 1 2 1 2 3 1 1 3 6 4 4 5 5 4 3 2 3 5 7 9 10 9 11 8 5 7 12 10 7 7 8 8 8 7 9 4 3 7 12 9 10 20 20 18 18 15 10 11 16 19 19 18 18 18 19 21 22
2 2 3 2 2 2 1 1 5 5 5 6 3 2 5 3 2 3 2 1 2 4 2 0 3 4 6 5 3 2 2 0 1 2 1 2 2 2 0 3 4 5 6 5 4 4 3 3 5 4 8 12 10 12 12 8 9 11 11 11 8 9 11 13 17 14 5 4 14 15 9 11 19 22 21 20 17 15 19 23 22 19 18 18 18 20 23 24
2 2 3 3 3 2 2 3 6 8 6 4 2 2 5 6 5 4 2 2 1 3 4 3 5 6 7 5 4 4 4 2 1 3 2 3 2 2 1 2 4 7 6 4 3 3 3 3 5 2 7 12 10 13 13 9 7 9 12 13 9 11 15 17 18 15 10 14 20 21 20 20 21 21 22 24 26 26 26 24 20 20 19 19 20 22 25 27
3 2 3 4 2 3 4 5 8 7 3 2 1 2 5 7 7 4 3 5 2 2 4 4 6 6 6 5 5 4 6 5 3 3 4 4 2 3 3 2 3 5 5 3 2 2 3 3 2 2 5 10 8 8 8 6 7 11 15 14 9 10 12 14 15 12 9 14 20 18 18 19 21 20 20 26 28 23 19 18 20 22 22 21 22 25 27 28
6 5 3 3 2 2 3 4 6 5 1 1 2 3 3 6 8 5 2 3 4 3 5 7 6 4 2 3 5 5 5 4 4 4 6 6 4 4 4 4 6 6 4 4 2 2 3 3 3 5 4 7 3 3 8 8 7 11 15 15 11 9 8 9 10 8 9 13 14 11 10 14 16 12 12 18 19 15 16 19 22 24 23 22 24 28 29 29
7 7 6 3 1 1 3 3 2 2 1 3 4 4 3 5 9 10 3 2 3 3 3 5 6 5 3 2 6 5 3 3 2 2 5 5 4 3 3 5 8 8 6 5 2 2 4 2 1 3 2 6 4 7 11 10 6 6 8 9 9 8 7 7 8 10 13 11 8 7 10 13 13 10 10 14 14 14 18 21 23 25 24 24 27 29 31 31
Wind_Direction
80 79 84 91 90 84 79 76 78 84 95 101 103 104 104 99 86 79 86 100 107 110 115 115 111 105 97 91 80 72 63 59 65 61 53 43 30 30 31 33 42 50 57 60 63 71 71 58 42 27 44 60 35 21 27 30 39 66 76 72 95 91 63 104 98 47 96 324 24 53 63 71 83 87 89 68 64 81 83 82 91 92 96 103 114 135 144 170
84 83 89 94 93 86 79 76 76 77 88 103 107 104 98 91 84 82 88 100 114 122 124 121 118 113 103 95 85 74 58 52 61 55 46 38 35 40 39 44 50 54 63 64 63 62 64 61 51 59 76 65 46 39 51 50 48 55 87 85 95 136 106 92 95 54 43 31 54 67 69 60 44 60 79 70 72 86 88 89 95 95 100 114 133 160 194 232
90 91 97 100 96 86 76 72 77 82 87 99 106 104 98 93 89 86 90 96 109 137 143 134 126 119 109 99 86 72 47 45 51 39 32 36 38 40 40 46 55 58 60 57 57 61 71 68 56 69 80 65 54 52 51 46 42 46 77 83 119 137 116 80 66 52 60 54 54 71 78 64 54 65 91 100 88 76 88 107 106 103 107 117 139 176 230 263
99 101 105 107 100 85 73 68 79 93 94 99 105 104 99 90 76 83 93 90 90 120 149 155 147 135 127 123 64 58 36 42 35 21 26 37 34 37 42 47 57 63 64 57 61 82 86 72 70 80 81 69 59 58 47 50 62 42 70 105 151 128 105 65 51 51 71 53 48 84 94 76 65 69 104 120 92 59 95 122 125 122 124 126 141 163 240 275
105 109 112 113 105 86 71 70 85 103 103 102 102 99 91 74 67 95 98 84 86 99 112 140 161 164 190 261 260 248 216 38 16 17 33 35 33 37 44 50 53 62 73 73 78 95 86 71 91 79 69 62 53 55 48 70 92 73 75 106 117 110 100 61 57 69 73 48 48 86 100 109 86 66 85 109 106 138 127 130 136 134 139 141 145 148 196 288
110 113 117 120 110 88 78 81 93 107 109 104 100 91 79 69 73 107 113 93 92 97 97 104 116 108 80 63 105 166 119 86 7 24 35 32 38 40 46 51 47 50 69 95 97 96 83 79 96 85 74 68 55 59 51 60 94 101 79 99 104 103 101 70 72 83 61 48 63 100 106 117 104 74 80 97 114 147 142 142 143 138 147 149 156 152 128 325
117 115 118 126 116 97 91 93 98 105 110 105 99 86 73 71 77 106 131 113 97 95 95 98 100 90 79 75 84 91 83 70 28 32 35 33 41 41 50 53 48 52 66 89 95 89 83 80 87 91 89 74 59 69 66 64 83 109 115 115 110 101 93 74 79 81 53 59 85 110 111 110 111 102 97 106 123 143 144 153 151 144 152 156 164 152 127 201
122 117 119 129 124 108 101 102 102 105 107 102 96 86 74 71 79 98 130 140 129 110 105 102 100 91 83 75 74 71 61 45 34 40 37 36 45 49 57 59 56 61 65 72 78 84 86 77 80 90 85 80 80 70 71 70 63 78 128 134 119 101 93 79 75 73 59 73 87 88 98 110 120 120 114 124 135 143 149 154 153 151 156 163 172 181 200 211
119 115 119 129 126 113 106 107 107 104 103 98 94 88 78 74 81 92 108 137 151 150 151 113 111 109 95 94 72 60 41 30 36 38 37 43 54 59 63 66 63 61 63 63 66 77 86 75 75 101 106 99 85 65 56 77 44 18 89 130 128 110 101 85 72 75 67 73 83 86 103 119 121 113 112 141 147 148 153 151 156 158 158 169 181 195 212 243
120 116 117 123 120 111 107 112 112 106 105 101 93 84 79 79 84 90 97 113 123 126 118 87 103 123 113 108 86 67 30 39 40 30 39 55 67 66 65 66 61 59 66 65 60 60 68 89 97 103 104 94 85 79 68 85 121 115 76 107 120 119 107 83 70 78 67 63 87 111 134 144 138 108 133 159 158 157 156 152 161 167 168 176 181 195 233 279
123 116 114 115 113 110 110 118 118 113 114 106 88 77 80 89 92 92 98 106 107 105 97 89 95 104 99 84 77 70 47 52 41 32 48 66 71 68 67 67 61 62 70 69 62 57 60 104 130 110 97 93 91 89 75 81 157 163 124 98 106 107 99 78 65 81 77 60 104 126 145 161 158 337 162 166 167 166 162 159 167 173 176 177 181 210 260 287
119 112 113 112 108 110 115 123 122 117 122 108 80 72 82 101 103 94 99 112 110 97 89 86 91 96 76 65 62 59 58 56 41 33 51 70 70 69 74 74 67 65 68 66 62 60 62 87 137 114 115 132 109 80 72 47 59 135 95 87 60 40 72 76 67 93 100 76 110 124 136 218 332 146 160 164 168 170 166 164 173 179 183 186 199 241 274 283
115 110 115 111 107 109 114 128 131 121 124 111 76 73 85 107 111 97 101 114 111 94 82 74 75 95 86 61 53 55 60 56 51 40 49 70 73 76 81 79 70 63 60 60 58 59 64 74 106 100 99 124 108 96 96 46 44 73 57 66 21 12 348 324 62 96 102 86 86 111 164 291 239 167 164 168 171 171 168 170 180 185 192 205 224 259 272 280
116 115 118 112 108 108 112 126 130 117 114 114 90 83 95 103 99 103 111 122 125 99 75 73 73 80 89 76 53 55 62 58 62 55 53 77 85 83 82 76 67 60 52 52 52 50 58 71 86 87 76 68 75 113 109 52 45 31 354 38 49 35 306 303 341 43 62 110 48 68 224 263 218 179 171 175 178 175 173 178 186 194 206 220 237 254 268 285
118 119 118 115 113 113 114 119 113 98 91 99 109 103 103 108 103 102 108 115 119 107 88 85 82 77 80 76 53 54 65 69 61 55 57 93 101 90 81 72 64 59 51 46 49 45 42 61 69 64 48 45 51 79 66 31 33 31 19 342 347 44 307 306 316 40 52 260 14 54 215 253 210 187 179 181 186 182 180 183 191 204 214 226 240 248 273 288
122 122 121 119 115 117 117 118 110 92 84 92 109 116 102 101 115 107 103 101 97 104 101 86 71 67 72 65 52 52 55 54 48 52 60 82 99 92 82 73 66 61 55 52 63 56 42 57 65 55 44 44 39 52 54 20 351 11 75 236 295 345 331 315 317 32 48 356 353 35 213 255 208 187 184 186 190 187 183 187 197 209 218 229 239 251 278 288
124 122 123 118 115 123 124 121 118 99 89 96 110 138 114 91 129 115 96 101 102 100 96 90 75 65 70 66 54 44 40 44 51 68 72 73 75 72 67 59 61 66 60 58 72 75 49 55 68 55 46 45 25 48 62 19 333 320 26 345 283 322 329 311 303 350 29 20 338 356 210 243 207 178 183 191 193 190 187 192 202 209 221 233 239 259 277 290
124 124 121 117 117 119 116 110 109 105 102 101 96 100 86 85 152 165 83 118 119 107 80 76 79 74 66 49 44 37 38 43 51 69 74 73 67 51 44 37 42 94 64 49 45 48 52 57 84 83 43 37 22 53 69 303 270 269 305 310 299 328 313 290 287 321 16 11 329 339 336 225 190 173 185 193 194 193 190 196 207 214 224 236 245 265 278 295
122 119 113 110 111 110 110 108 109 110 105 102 93 85 86 86 93 93 106 125 102 89 56 35 50 98 86 41 52 55 47 43 38 54 58 63 63 45 39 38 44 106 133 46 27 31 55 81 73 58 11 5 5 64 86 248 232 240 253 251 305 324 291 275 284 303 360 359 306 291 268 206 186 185 189 191 194 195 195 200 209 215 227 239 251 266 279 298
119 112 107 106 109 107 110 115 119 118 109 100 78 71 98 93 74 66 80 88 78 75 89 64 66 88 84 56 67 82 55 45 41 50 30 22 75 56 54 51 53 68 72 97 33 28 59 77 38 7 310 314 301 49 14 286 250 240 248 29 327 318 298 285 288 307 353 0 278 272 256 195 187 195 190 187 191 193 193 199 206 217 232 240 251 269 283 299
119 109 106 106 107 106 115 132 134 128 99 50 44 74 115 103 91 85 80 79 76 78 84 78 74 76 69 56 57 76 74 58 54 56 44 41 92 48 46 51 55 46 12 107 109 30 58 70 13 299 291 304 296 8 17 354 337 282 104 52 343 316 295 297 287 302 351 3 279 281 150 199 200 194 187 184 191 198 196 199 210 222 235 243 259 278 290 308
118 105 103 98 95 99 109 127 130 115 81 78 80 87 95 96 100 102 96 90 83 80 72 67 72 74 73 62 53 62 72 58 46 46 47 56 71 64 53 53 58 40 360 64 85 24 45 55 304 301 323 352 36 30 27 17 11 34 80 57 343 310 297 305 299 306 340 355 283 295 259 236 222 193 190 192 200 208 204 205 216 228 245 258 270 283 300 322
115 99 95 89 93 99 98 96 98 100 88 73 69 81 93 100 99 93 96 103 94 80 66 58 58 60 66 61 47 52 61 50 23 24 33 48 66 69 65 62 63 45 21 42 72 61 57 321 284 310 334 19 45 24 29 21 13 23 43 33 318 312 343 308 303 320 320 292 259 286 282 265 240 213 216 207 206 207 204 209 224 238 257 268 273 288 317 331
114 95 90 93 103 103 92 89 93 93 77 53 56 82 97 101 103 96 89 93 99 91 65 48 46 46 47 44 35 46 57 53 25 18 24 34 59 68 66 72 64 51 56 70 81 91 119 244 292 330 354 42 49 15 34 33 360 324 260 269 310 312 290 254 281 324 320 305 291 319 305 285 223 212 230 218 205 201 202 213 232 247 264 270 274 305 327 333
114 101 98 98 101 96 85 81 77 70 61 49 60 88 105 105 106 118 95 75 69 17 30 30 28 34 33 30 43 71 65 54 35 21 23 33 45 71 61 52 56 85 135 101 85 92 147 261 312 356 9 38 58 19 24 56 358 323 248 237 293 303 289 281 308 340 345 323 324 34 346 295 224 208 231 226 209 218 215 220 233 253 269 265 277 316 327 328
120 111 103 98 91 78 76 72 59 54 56 47 57 77 93 146 161 181 143 63 6 297 337 16 6 21 20 14 24 137 82 44 34 28 30 32 32 64 64 21 44 100 168 138 93 112 4 348 17 49 34 35 51 12 331 78 27 328 273 272 295 309 303 301 315 334 356 286 298 67 68 285 268 227 231 204 209 234 229 228 236 251 265 261 285 317 323 325
130 120 109 103 81 53 58 62 43 38 39 29 39 55 54 161 157 201 96 44 341 279 48 353 357 36 29 18 30 148 108 349 28 32 33 30 28 59 66 12 52 59 162 108 48 283 259 26 19 25 47 47 36 343 278 89 54 289 283 300 306 310 301 297 299 274 240 273 307 45 118 271 286 263 226 177 200 245 243 240 241 244 252 264 291 311 319 325
142 135 127 116 71 32 28 28 22 16 3 359 17 20 327 186 205 131 93 65 306 15 43 32 81 65 52 44 57 86 77 35 63 26 27 30 29 53 66 82 135 177 25 109 140 279 210 74 324 9 43 31 346 275 248 135 105 264 281 299 296 287 277 279 273 250 264 328 309 322 5 290 275 283 39 141 199 254 246 236 235 238 250 271 288 306 319 323
169 166 161 167 344 344 344 351 354 349 341 343 359 353 15 30 237 76 82 130 270 74 49 62 87 33 32 56 51 54 56 50 55 20 25 34 32 56 87 79 104 120 53 98 169 236 183 161 202 136 77 330 270 267 243 168 205 275 296 305 300 284 257 248 231 236 10 23 266 279 14 352 284 278 62 146 229 252 244 232 230 239 255 269 284 307 319 320
210 216 215 240 287 312 316 329 333 329 326 320 324 6 70 62 84 70 51 246 127 55 13 28 332 334 5 52 30 27 47 42 26 25 31 41 45 60 101 85 35 83 61 46 85 219 203 120 262 112 141 252 281 295 271 195 222 304 326 314 308 317 336 52 178 104 68 315 251 217 125 64 306 275 205 194 219 207 206 234 240 247 256 262 290 315 317 317
245 248 255 266 282 300 308 317 319 316 313 298 289 100 80 35 67 91 189 245 62 330 356 15 328 358 28 88 36 360 22 20 8 23 25 31 37 36 54 43 15 49 23 6 18 330 352 25 326 187 209 304 320 321 312 226 341 357 341 318 332 339 5 22 1 47 89 278 246 196 80 76 240 265 240 224 225 188 186 216 238 250 252 260 305 317 315 318
261 265 274 281 284 294 301 305 304 300 292 261 192 114 84 36 24 169 235 330 17 284 67 350 309 27 35 61 46 331 358 3 356 29 51 45 40 28 39 71 336 36 4 332 346 338 325 280 298 274 270 330 4 350 342 356 21 13 340 358 14 352 5 10 344 9 220 249 232 266 14 25 230 251 235 223 225 212 211 220 238 248 247 272 314 316 319 323
264 273 282 287 289 295 297 296 293 279 256 203 159 83 77 82 276 230 244 340 269 270 124 134 21 74 72 44 7 308 8 349 337 22 78 85 78 46 31 42 77 70 335 300 350 353 331 301 336 10 301 347 74 62 347 331 352 351 346 33 52 29 10 342 317 328 288 263 270 322 0 301 268 271 220 212 218 219 222 229 243 251 248 290 320 323 325 322
267 281 291 294 297 298 298 292 272 230 205 178 143 66 69 139 236 199 242 252 224 16 63 132 48 53 60 68 240 267 63 291 323 27 27 57 60 19 344 359 17 58 92 54 23 31 2 317 285 160 288 354 85 146 170 206 299 302 283 99 96 104 70 305 282 303 296 291 298 315 319 219 275 278 208 207 213 215 223 235 246 248 252 304 328 327 323 319
293 308 305 304 305 300 301 280 221 187 181 172 106 66 109 216 235 171 213 236 208 206 2 44 74 68 18 341 274 270 116 252 309 47 31 56 87 47 354 334 352 48 91 68 354 152 33 280 240 177 333 122 129 208 153 122 282 278 107 90 56 194 150 173 234 233 271 301 298 281 218 216 242 266 222 202 211 217 227 236 238 244 269 312 324 322 318 316
352 335 315 304 295 294 317 218 187 171 172 154 77 82 193 224 218 174 189 175 151 161 134 43 70 105 283 300 319 320 300 232 69 57 23 69 135 139 123 258 329 57 101 116 70 21 6 280 243 116 9 51 101 260 76 73 270 333 48 68 244 179 133 124 275 282 13 306 284 274 283 292 312 304 283 232 260 250 245 239 231 251 290 308 316 318 313 312
26 350 330 307 271 247 198 191 177 170 167 112 88 188 213 224 191 179 190 17 171 140 118 130 170 153 206 234 276 290 303 330 18 67 24 32 95 136 136 171 342 90 125 122 154 185 111 292 265 179 226 293 90 93 66 61 79 78 95 215 187 87 89 105 299 333 32 268 273 271 280 298 327 309 282 271 272 265 260 246 235 259 283 293 307 312 308 312
30 356 350 2 297 198 175 177 172 173 161 81 89 225 201 160 206 199 209 102 139 97 106 159 208 177 186 184 220 252 244 155 330 66 139 217 303 147 141 134 32 105 133 100 69 175 113 315 290 231 155 244 55 71 30 17 53 88 154 173 106 74 343 21 350 331 358 309 293 280 278 280 246 244 252 241 254 262 263 250 239 255 266 280 298 303 304 315
355 344 9 28 80 165 166 167 167 165 122 85 171 236 170 173 223 191 184 182 119 104 136 196 197 118 186 174 177 222 205 163 166 97 132 178 231 157 139 157 145 117 120 105 129 190 103 118 283 320 82 160 40 64 233 293 12 41 41 24 70 135 171 184 178 186 213 302 300 304 311 291 225 212 224 248 263 262 249 239 236 245 256 275 292 302 310 316
314 331 24 32 104 154 159 157 153 129 93 119 190 192 141 192 209 184 173 188 181 147 185 217 166 123 202 190 173 183 138 150 152 133 169 156 141 178 142 147 155 149 120 68 108 121 59 134 249 301 328 280 291 204 187 193 181 66 61 230 270 42 122 198 220 172 151 164 239 306 307 287 255 205 214 253 266 238 220 230 237 247 261 282 298 309 315 316
268 328 15 38 128 154 153 136 87 74 101 103 143 149 94 166 163 167 170 184 212 175 197 212 172 164 173 162 190 193 122 127 140 125 216 169 115 236 174 154 157 157 127 61 71 92 62 169 222 291 305 275 236 208 190 190 178 163 172 190 185 141 101 18 294 272 120 156 180 216 295 283 271 195 208 239 236 215 223 230 242 261 278 296 309 313 314 314
199 197 344 167 166 167 147 101 39 52 107 116 108 114 131 148 140 135 151 161 244 226 230 242 192 142 141 158 189 163 113 131 167 143 191 183 171 184 165 159 164 159 139 115 190 195 143 125 186 265 270 259 234 197 172 192 159 141 166 174 145 134 132 146 250 253 174 214 191 133 269 274 252 174 202 212 203 219 228 230 252 281 294 304 311 311 311 311
191 230 296 204 185 180 139 65 13 24 67 113 110 104 110 136 141 130 149 161 227 252 329 297 311 58 159 190 154 136 128 136 169 171 166 170 195 187 168 164 166 149 128 126 183 173 125 96 189 267 280 288 289 294 333 27 70 108 235 168 150 155 147 156 180 174 184 235 194 136 248 268 257 193 204 200 201 226 244 257 278 290 298 304 307 308 307 307
167 227 266 198 197 198 177 162 175 38 294 91 66 68 83 101 131 137 172 185 165 139 106 185 312 352 223 103 97 142 170 115 121 159 154 162 181 180 172 172 172 154 148 179 161 151 188 182 126 322 322 333 347 330 323 346 91 225 240 182 160 122 105 114 124 92 322 227 180 156 246 264 262 177 192 210 227 254 274 284 286 288 295 301 303 304 303 303
123 126 289 199 208 212 218 203 168 147 169 139 92 157 149 69 132 143 151 177 174 144 128 169 186 110 82 46 63 64 44 76 206 7 95 141 176 186 186 187 183 162 159 168 148 139 179 207 138 85 345 315 311 307 307 309 249 233 187 169 173 137 135 148 117 101 253 224 166 172 244 273 284 246 225 253 261 272 283 288 285 283 289 296 299 301 300 300
156 259 295 285 221 205 188 195 155 136 156 154 129 204 165 123 223 174 140 171 185 140 115 141 151 99 49 58 74 44 2 46 60 116 169 198 254 227 200 193 186 163 153 152 149 137 103 276 214 188 201 230 248 257 282 343 293 277 266 209 192 176 167 145 112 181 211 182 207 226 238 274 288 287 286 288 283 283 292 295 286 279 284 292 295 296 297 299
232 252 230 268 240 172 110 152 160 141 160 163 151 179 165 154 294 175 194 248 185 160 120 104 162 158 163 144 125 200 215 67 57 154 183 183 165 53 192 194 194 187 171 160 164 136 84 292 248 214 226 241 252 263 281 314 283 274 275 249 200 181 172 164 197 219 169 84 271 252 220 250 280 289 295 296 297 300 299 295 289 283 286 290 290 293 295 298
242 244 222 208 227 193 84 196 177 138 131 148 137 133 156 166 185 182 208 236 177 185 171 279 241 208 192 179 150 158 183 83 256 218 167 137 133 68 101 219 210 204 185 161 178 152 113 260 245 205 248 259 261 269 274 274 266 264 266 258 224 187 182 196 223 229 190 216 260 267 263 264 278 286 288 290 297 299 295 294 291 285 284 285 287 291 294 296
237 241 214 204 219 181 135 170 162 135 121 121 103 150 166 178 201 210 181 110 291 243 192 212 254 226 205 196 138 142 186 188 239 237 174 146 174 139 144 241 216 206 188 150 194 188 135 251 250 207 280 277 261 261 266 262 265 268 262 254 232 204 200 210 231 234 221 237 254 269 279 277 274 276 281 288 292 290 288 288 282 277 280 283 286 290 293 295
241 253 204 176 150 112 123 149 145 131 113 101 137 211 183 177 195 213 170 146 181 237 187 211 244 219 201 187 149 173 210 180 161 210 176 147 183 189 188 201 163 177 191 168 205 201 161 260 274 92 313 292 266 257 265 252 254 270 274 268 245 224 217 223 239 241 233 248 256 266 277 277 272 270 273 280 284 283 280 274 271 275 281 285 287 290 292 293
242 257 237 177 116 96 132 154 137 118 90 224 203 211 202 199 195 178 156 188 192 186 192 204 202 172 151 183 193 222 230 174 154 189 177 170 193 194 197 192 151 146 187 195 183 156 166 266 339 55 345 291 282 335 310 290 271 269 277 275 255 232 220 222 230 217 207 237 258 272 275 270 272 273 268 272 276 275 271 270 273 278 282 285 287 289 290 291
239 248 236 197 121 140 171 168 119 116 205 220 189 182 212 226 190 164 145 268 206 176 204 199 171 134 97 224 228 227 201 166 152 167 182 194 205 192 187 184 166 159 170 170 166 177 157 161 9 54 317 276 317 344 315 309 322 295 267 247 226 222 227 235 241 220 208 219 247 262 256 262 282 298 289 283 282 277 274 276 278 280 283 286 286 288 290 290